TIANLIAN 2-03

Last updated on Sun Oct 06 2024 00:02:42 GMT+0000 (Coordinated Universal Time)

1 53100U 22078A 24278.93149170 .00000081 00000+0 00000+0 0 9992 2 53100 0.9491 278.6432 0001908 289.9377 151.4373 1.00274213 8337
UTC large
Height (km)
Speed (km/s)
/
Latitude / Longitude
Inclination (degrees)
Orbital Period (minutes)
Azimuth
Elevation
Range (km)
Doppler Factor

Next 0 passes for location: London (51.5072 / 0.1276)

Sorry there are no passes over London.